"startDT [UTC]","vpos","CH4 [ppm]","stdev(CH4) [ppm]","CO2 [ppm]","stdev(CO2) [ppm]","H2O_reported [%]","stdev(H2O_reported)","CavityPressure [torr]","CavityTemp [C]","OutletValve","CH4_dry [ppm]","CO2_dry [ppm]","DasTemp [C]","EtalonTemp [C]","WarmBoxTemp [C]","MPVPosition","T_ECpre [C]","T_EC1 [C]","T_EC2 [C]","p_inlet [hPa]","p_in [hPa]","p_out [hPa]","T_inlet [C]","RH_inlet [%]","dwpt_inlet [C]","T_vent [C]","RH_vent [%]","dwpt_vent [C]","flow_vent [l min-1]","flow_inlet [l min-1]","dwpt_sample [C]","T_room [C]"
2016-02-12 00:00:00,3.0,1.88504,0.02701,399.594,3.580,0.0083,0.0110,139.994,45.011,31429.64064,1.88790,399.829,32.369,45.070,44.999,0.00,0.08,-272.75,-272.82,-3,500,-952,19.0,1.2,-36.8,19.1,1.2,-36.3,5.73,2.01,-21.0,25.3
2016-02-12 00:01:00,3.0,1.87571,0.00025,396.941,0.052,0.0014,0.0017,140.002,45.024,31448.09775,1.87574,396.950,32.325,45.070,44.999,0.00,0.08,-272.76,-272.81,-3,500,-952,19.0,1.2,-36.8,19.1,1.2,-36.3,5.73,2.12,-21.0,25.3
2016-02-12 00:02:00,3.0,1.87537,0.00043,397.226,0.110,0.0009,0.0021,140.003,45.033,31474.30141,1.87541,397.225,32.312,45.071,45.000,0.00,0.08,-272.75,-272.80,-3,500,-952,19.0,1.2,-36.9,19.1,1.2,-36.3,5.73,2.06,-21.0,25.3
2016-02-12 00:03:00,3.0,1.87534,0.00027,397.445,0.052,0.0012,0.0023,140.000,45.033,31494.54070,1.87534,397.447,32.291,45.071,45.001,0.00,0.08,-272.75,-272.81,-4,500,-952,19.0,1.2,-36.8,19.1,1.2,-36.3,5.73,1.92,-21.0,25.3
2016-02-12 00:04:00,3.0,1.87553,0.00030,397.489,0.028,0.0010,0.0020,140.000,45.024,31507.44253,1.87557,397.495,32.301,45.072,45.001,0.00,0.08,-272.76,-272.81,-3,501,-952,19.0,1.2,-36.8,19.1,1.2,-36.3,5.73,1.84,-21.0,25.3
2016-02-12 00:05:00,3.0,1.87584,0.00030,397.504,0.030,0.0012,0.0020,139.999,45.011,31514.65042,1.87586,397.508,32.303,45.072,45.001,0.00,0.08,-272.75,-272.81,-3,501,-952,19.0,1.2,-36.8,19.2,1.2,-36.3,5.73,1.95,-21.0,25.3
2016-02-12 00:06:00,3.0,1.87578,0.00030,397.516,0.032,0.0015,0.0022,140.000,44.999,31517.63715,1.87580,397.523,32.274,45.072,45.001,0.00,0.08,-272.75,-272.80,-3,501,-952,19.0,1.1,-37.1,19.2,1.2,-36.5,5.73,2.10,-21.0,25.3
2016-02-12 00:07:00,3.0,1.87589,0.00028,397.514,0.030,0.0006,0.0019,140.000,44.995,31513.11311,1.87589,397.517,32.260,45.072,45.001,0.00,0.08,-272.76,-272.81,-3,501,-952,19.0,1.1,-37.0,19.2,1.2,-36.5,5.73,2.10,-21.0,25.3
2016-02-12 00:08:00,3.0,1.87583,0.00042,397.502,0.026,0.0011,0.0016,140.001,44.995,31511.35501,1.87585,397.508,32.257,45.071,45.001,0.00,0.08,-272.75,-272.81,-3,501,-952,19.1,1.1,-37.0,19.2,1.2,-36.5,5.73,1.97,-21.0,25.3
2016-02-12 00:09:00,3.0,1.87602,0.00039,397.523,0.033,-0.0002,0.0016,139.996,44.992,31501.13352,1.87602,397.521,32.261,45.071,45.001,0.00,0.08,-272.75,-272.81,-3,502,-952,19.1,1.1,-37.3,19.2,1.2,-36.5,5.73,1.85,-21.0,25.3
2016-02-12 00:10:00,3.0,1.87612,0.00027,397.565,0.034,0.0004,0.0025,139.996,44.988,31489.81480,1.87611,397.566,32.264,45.071,45.001,0.00,0.08,-272.75,-272.81,-4,502,-952,19.2,1.1,-37.1,19.3,1.2,-36.5,5.73,1.90,-21.0,25.4
2016-02-12 00:11:00,3.0,1.87603,0.00023,397.559,0.028,0.0004,0.0016,139.999,44.984,31476.81574,1.87603,397.560,32.257,45.071,45.000,0.00,0.08,-272.76,-272.81,-4,502,-952,19.2,1.1,-37.2,19.3,1.2,-36.5,5.73,2.06,-21.0,25.4
2016-02-12 00:12:00,3.0,1.87625,0.00039,397.563,0.034,-0.0005,0.0016,139.998,44.982,31461.67225,1.87624,397.560,32.253,45.071,45.000,0.00,0.08,-272.75,-272.81,-3,502,-952,19.2,1.1,-37.2,19.3,1.2,-36.4,5.73,2.12,-21.0,25.4
2016-02-12 00:13:00,3.0,1.87632,0.00025,397.583,0.024,-0.0003,0.0022,139.999,44.982,31450.82728,1.87632,397.583,32.259,45.071,45.000,0.00,0.08,-272.75,-272.81,-3,503,-952,19.3,1.1,-37.2,19.3,1.2,-36.5,5.73,2.01,-21.0,25.4
2016-02-12 00:14:00,3.0,1.87624,0.00035,397.567,0.029,-0.0004,0.0014,139.997,44.983,31440.45316,1.87623,397.564,32.260,45.071,45.000,0.00,0.08,-272.76,-272.82,-3,503,-952,19.3,1.1,-37.1,19.4,1.2,-36.4,5.73,1.88,-21.0,25.4
2016-02-12 00:15:00,3.0,1.87615,0.00029,397.573,0.023,0.0002,0.0021,139.999,44.985,31433.18086,1.87614,397.574,32.299,45.070,44.999,0.00,0.08,-272.76,-272.81,-3,503,-952,19.4,1.1,-37.1,19.4,1.2,-36.4,5.73,1.87,-21.0,25.5
2016-02-12 00:16:00,3.0,1.87629,0.00030,397.571,0.035,-0.0003,0.0013,140.000,44.987,31426.24479,1.87629,397.571,32.291,45.070,44.999,0.00,0.08,-272.76,-272.81,-3,503,-952,19.4,1.1,-37.2,19.4,1.2,-36.4,5.73,2.01,-21.0,25.5
2016-02-12 00:17:00,3.0,1.87582,0.00038,397.548,0.025,0.0002,0.0017,140.000,44.990,31423.07506,1.87583,397.549,32.261,45.070,44.999,0.00,0.08,-272.77,-272.81,-4,504,-952,19.4,1.1,-37.2,19.4,1.2,-36.5,5.73,2.12,-21.0,25.5
2016-02-12 00:18:00,3.0,1.87588,0.00042,397.549,0.027,-0.0009,0.0010,139.998,44.993,31420.01270,1.87587,397.544,32.250,45.070,45.000,0.00,0.08,-272.76,-272.81,-4,504,-952,19.5,1.1,-37.2,19.5,1.2,-36.5,5.73,2.07,-21.0,25.5
2016-02-12 00:19:00,3.0,1.87601,0.00035,397.540,0.020,0.0001,0.0020,139.997,44.996,31417.46103,1.87602,397.541,32.222,45.070,45.000,0.00,0.08,-272.75,-272.80,-4,504,-952,19.5,1.1,-37.3,19.5,1.2,-36.6,5.73,1.91,-21.0,25.5
2016-02-12 00:20:00,0.0,1.94538,0.02560,406.817,3.606,0.0224,0.0113,140.005,44.998,31503.09862,1.94313,406.741,32.190,45.071,45.000,0.00,0.08,-272.76,-272.81,-5,517,-952,19.5,1.1,-37.2,19.5,1.2,-36.6,5.73,2.00,-21.0,25.5
2016-02-12 00:21:00,0.0,1.95615,0.00047,408.385,0.037,0.0308,0.0030,140.000,44.998,31515.75284,1.95671,408.537,32.196,45.071,45.000,0.00,0.08,-272.77,-272.82,-5,518,-952,19.6,1.1,-37.2,19.6,1.2,-36.5,5.73,1.94,-21.0,25.6
2016-02-12 00:22:00,0.0,1.95645,0.00040,408.392,0.028,0.0301,0.0023,139.999,44.999,31517.67732,1.95702,408.540,32.193,45.071,45.000,0.00,0.08,-272.75,-272.80,-5,518,-952,19.6,1.1,-37.2,19.6,1.2,-36.5,5.73,1.98,-21.0,25.6
2016-02-12 00:23:00,0.0,1.95613,0.00049,408.371,0.033,0.0307,0.0012,139.998,44.999,31520.02506,1.95674,408.522,32.196,45.071,45.000,0.00,0.08,-272.76,-272.81,-5,518,-952,19.6,1.1,-37.3,19.6,1.2,-36.5,5.73,2.03,-21.0,25.6
2016-02-12 00:24:00,0.0,1.95626,0.00035,408.381,0.031,0.0310,0.0019,139.998,45.000,31521.60222,1.95685,408.532,32.195,45.071,45.000,0.00,0.08,-272.76,-272.81,-5,519,-952,19.6,1.1,-37.4,19.6,1.2,-36.5,5.73,2.08,-21.0,25.6
2016-02-12 00:25:00,0.0,1.95650,0.00048,408.385,0.038,0.0310,0.0020,139.998,44.999,31520.69941,1.95713,408.537,32.215,45.071,45.000,0.00,0.08,-272.75,-272.81,-4,519,-952,19.7,1.1,-37.4,19.6,1.2,-36.5,5.73,2.09,-21.0,25.6
2016-02-12 00:26:00,0.0,1.95661,0.00047,408.398,0.031,0.0307,0.0015,139.998,44.996,31515.81645,1.95718,408.548,32.238,45.071,45.000,0.00,0.08,-272.74,-272.81,-5,519,-952,19.6,1.1,-37.4,19.6,1.2,-36.5,5.73,2.06,-21.0,25.6
2016-02-12 00:27:00,0.0,1.95683,0.00042,408.373,0.032,0.0310,0.0018,140.001,45.009,31523.74069,1.95741,408.525,32.243,45.070,44.999,0.00,0.08,-272.75,-272.81,-4,519,-952,19.7,1.1,-37.4,19.6,1.2,-36.4,5.73,2.00,-21.0,25.6
2016-02-12 00:28:00,0.0,1.95643,0.00036,408.336,0.023,0.0299,0.0018,140.000,45.026,31550.39789,1.95704,408.485,32.247,45.070,44.999,0.00,0.08,-272.76,-272.81,-4,519,-952,19.7,1.1,-37.5,19.7,1.2,-36.6,5.73,1.95,-21.0,25.6
2016-02-12 00:29:00,0.0,1.95626,0.00033,408.304,0.029,0.0292,0.0015,140.001,45.032,31578.62645,1.95679,408.446,32.245,45.070,44.999,0.00,0.08,-272.74,-272.81,-5,519,-952,19.6,1.0,-37.9,19.6,1.1,-36.9,5.73,1.91,-21.0,25.6
2016-02-12 00:30:00,0.0,1.95621,0.00028,408.298,0.035,0.0295,0.0019,140.002,45.028,31598.60844,1.95679,408.443,32.250,45.070,45.000,0.00,0.08,-272.75,-272.82,-5,519,-952,19.7,1.0,-38.0,19.7,1.1,-36.9,5.73,1.92,-21.0,25.6
2016-02-12 00:31:00,0.0,1.95622,0.00045,408.342,0.031,0.0297,0.0017,139.998,45.018,31607.18795,1.95676,408.486,32.250,45.071,45.000,0.00,0.08,-272.77,-272.81,-5,519,-952,19.6,1.0,-37.8,19.6,1.1,-36.9,5.73,1.96,-21.0,25.6
2016-02-12 00:32:00,0.0,1.95579,0.00048,408.379,0.036,0.0301,0.0016,140.001,45.006,31611.30686,1.95642,408.525,32.251,45.071,45.001,0.00,0.08,-272.75,-272.80,-5,519,-952,19.6,1.0,-37.7,19.7,1.1,-36.9,5.73,2.03,-21.0,25.6
2016-02-12 00:33:00,0.0,1.95611,0.00041,408.438,0.036,0.0302,0.0013,139.999,44.997,31607.32688,1.95666,408.586,32.252,45.071,45.001,0.00,0.08,-272.76,-272.80,-5,519,-952,19.6,1.1,-37.5,19.6,1.1,-36.7,5.73,2.08,-21.0,25.6
2016-02-12 00:34:00,0.0,1.95647,0.00030,408.464,0.027,0.0312,0.0017,139.999,44.991,31602.09410,1.95707,408.617,32.249,45.072,45.001,0.00,0.08,-272.77,-272.81,-5,519,-952,19.7,1.1,-37.4,19.7,1.1,-36.7,5.73,2.09,-21.0,25.6
2016-02-12 00:35:00,0.0,1.95698,0.00047,408.508,0.031,0.0301,0.0020,139.996,44.985,31587.19717,1.95753,408.655,32.243,45.072,45.001,0.00,0.08,-272.76,-272.81,-5,520,-952,19.6,1.1,-37.5,19.7,1.2,-36.5,5.73,2.06,-21.0,25.6
2016-02-12 00:36:00,0.0,1.95671,0.00037,408.489,0.036,0.0311,0.0015,139.999,44.982,31577.73155,1.95734,408.641,32.223,45.071,45.001,0.00,0.08,-272.74,-272.80,-5,520,-952,19.6,1.1,-37.3,19.6,1.2,-36.5,5.73,2.00,-21.0,25.6
2016-02-12 00:37:00,0.0,1.95664,0.00055,408.498,0.030,0.0307,0.0018,139.998,44.981,31565.31069,1.95726,408.650,32.234,45.071,45.000,0.00,0.08,-272.75,-272.82,-5,520,-952,19.6,1.1,-37.2,19.7,1.2,-36.5,5.73,1.94,-21.0,25.6
2016-02-12 00:38:00,0.0,1.95587,0.00050,408.411,0.040,0.0310,0.0016,140.000,44.982,31553.73549,1.95646,408.564,32.211,45.071,45.000,0.00,0.08,-272.75,-272.82,-5,520,-952,19.6,1.1,-37.4,19.6,1.2,-36.5,5.73,1.91,-21.0,25.6
2016-02-12 00:39:00,0.0,1.95585,0.00044,408.414,0.030,0.0303,0.0017,139.997,44.984,31543.96167,1.95641,408.561,32.209,45.070,45.000,0.00,0.08,-272.75,-272.81,-5,520,-952,19.6,1.0,-37.6,19.6,1.1,-36.8,5.73,1.92,-21.0,25.6
2016-02-12 00:40:00,0.0,1.95593,0.00051,408.447,0.030,0.0292,0.0015,140.000,44.987,31536.40600,1.95648,408.590,32.203,45.070,45.000,0.00,0.08,-272.75,-272.80,-5,520,-952,19.5,1.0,-37.7,19.6,1.1,-36.8,5.73,1.98,-21.0,25.5
2016-02-12 00:41:00,0.0,1.95628,0.00035,408.489,0.040,0.0306,0.0014,139.999,44.990,31529.64618,1.95691,408.639,32.202,45.070,44.999,0.00,0.08,-272.77,-272.81,-5,520,-952,19.5,1.1,-37.4,19.6,1.1,-36.7,5.73,2.04,-21.0,25.6
2016-02-12 00:42:00,0.0,1.95602,0.00041,408.456,0.032,0.0311,0.0018,139.999,44.994,31526.18393,1.95662,408.608,32.206,45.070,45.000,0.00,0.08,-272.76,-272.81,-5,520,-952,19.5,1.1,-37.3,19.6,1.2,-36.6,5.73,2.08,-21.0,25.6
2016-02-12 00:43:00,0.0,1.95555,0.00048,408.448,0.046,0.0316,0.0013,139.996,44.997,31524.20104,1.95618,408.605,32.193,45.070,44.999,0.00,0.08,-272.75,-272.81,-4,520,-952,19.5,1.1,-37.3,19.6,1.2,-36.5,5.73,2.09,-21.0,25.5
2016-02-12 00:44:00,0.0,1.95607,0.00064,408.454,0.050,0.0316,0.0017,139.997,45.000,31525.03712,1.95666,408.608,32.191,45.070,45.000,0.00,0.08,-272.75,-272.81,-4,520,-952,19.5,1.1,-37.2,19.6,1.2,-36.5,5.73,2.05,-21.0,25.5
2016-02-12 00:45:00,0.0,1.95596,0.00052,408.450,0.046,0.0311,0.0016,140.000,45.002,31526.84996,1.95652,408.602,32.191,45.071,45.000,0.00,0.08,-272.76,-272.82,-4,520,-952,19.5,1.1,-37.3,19.6,1.2,-36.5,5.73,1.99,-21.0,25.5
2016-02-12 00:46:00,0.0,1.95634,0.00033,408.477,0.025,0.0316,0.0013,139.998,45.002,31526.88903,1.95694,408.631,32.185,45.070,45.000,0.00,0.08,-272.75,-272.80,-4,520,-952,19.5,1.1,-37.3,19.6,1.2,-36.3,5.73,1.93,-21.0,25.5
2016-02-12 00:47:00,0.0,1.95631,0.00039,408.497,0.041,0.0303,0.0018,139.996,45.003,31525.79351,1.95692,408.647,32.174,45.071,45.000,0.00,0.08,-272.75,-272.80,-4,520,-952,19.4,1.1,-37.3,19.6,1.2,-36.4,5.73,1.91,-21.0,25.5
2016-02-12 00:48:00,0.0,1.95606,0.00062,408.460,0.026,0.0312,0.0023,139.999,45.003,31528.37315,1.95661,408.612,32.186,45.071,45.000,0.00,0.08,-272.75,-272.81,-5,520,-952,19.4,1.1,-37.3,19.5,1.2,-36.5,5.73,1.93,-21.0,25.5
2016-02-12 00:49:00,0.0,1.95656,0.00044,408.484,0.026,0.0306,0.0020,139.998,45.003,31527.71851,1.95718,408.635,32.184,45.071,45.000,0.00,0.08,-272.75,-272.81,-5,519,-952,19.4,1.1,-37.3,19.5,1.2,-36.6,5.73,1.98,-21.0,25.5
2016-02-12 00:50:00,0.0,1.95660,0.00033,408.489,0.032,0.0310,0.0015,140.001,45.002,31529.79119,1.95718,408.639,32.171,45.071,45.000,0.00,0.08,-272.75,-272.81,-5,519,-952,19.4,1.1,-37.3,19.5,1.2,-36.5,5.73,2.04,-21.0,25.5
2016-02-12 00:51:00,0.0,1.95707,0.00043,408.496,0.029,0.0303,0.0015,139.999,45.001,31527.04926,1.95764,408.644,32.180,45.071,45.000,0.00,0.08,-272.76,-272.81,-5,520,-952,19.3,1.1,-37.6,19.5,1.2,-36.5,5.73,2.09,-21.0,25.5
2016-02-12 00:52:00,0.0,1.95724,0.00040,408.486,0.035,0.0316,0.0015,139.996,45.000,31525.91185,1.95786,408.640,32.177,45.071,45.000,0.00,0.08,-272.76,-272.81,-5,519,-952,19.3,1.1,-37.5,19.5,1.2,-36.5,5.73,2.08,-21.0,25.5
2016-02-12 00:53:00,0.0,1.95700,0.00043,408.497,0.030,0.0304,0.0014,139.997,45.000,31524.99374,1.95754,408.646,32.164,45.070,45.000,0.00,0.08,-272.75,-272.80,-5,519,-952,19.3,1.1,-37.3,19.5,1.2,-36.6,5.73,2.04,-21.0,25.5
2016-02-12 00:54:00,0.0,1.95726,0.00038,408.511,0.031,0.0317,0.0014,140.000,45.000,31524.35112,1.95787,408.667,32.165,45.071,45.000,0.00,0.08,-272.76,-272.82,-5,520,-952,19.3,1.1,-37.3,19.5,1.2,-36.6,5.73,1.98,-21.0,25.5
2016-02-12 00:55:00,0.0,1.95708,0.00033,408.500,0.033,0.0308,0.0024,139.997,45.000,31523.08952,1.95772,408.653,32.175,45.071,45.000,0.00,0.08,-272.76,-272.81,-5,519,-952,19.3,1.1,-37.3,19.5,1.2,-36.4,5.73,1.93,-21.0,25.5
2016-02-12 00:56:00,0.0,1.95729,0.00038,408.510,0.039,0.0299,0.0014,140.000,45.000,31522.57783,1.95783,408.655,32.169,45.071,45.000,0.00,0.08,-272.75,-272.81,-5,519,-952,19.3,1.1,-37.5,19.5,1.2,-36.6,5.73,1.91,-21.0,25.5
2016-02-12 00:57:00,0.0,1.95750,0.00034,408.510,0.027,0.0311,0.0022,139.997,44.999,31518.80972,1.95811,408.662,32.137,45.071,45.000,0.00,0.08,-272.75,-272.81,-5,520,-952,19.3,1.1,-37.5,19.5,1.2,-36.6,5.73,1.94,-21.0,25.5
2016-02-12 00:58:00,0.0,1.95759,0.00033,408.499,0.031,0.0315,0.0030,140.000,44.999,31519.91775,1.95822,408.653,32.140,45.071,45.000,0.00,0.08,-272.76,-272.81,-5,519,-952,19.2,1.1,-37.4,19.5,1.2,-36.6,5.73,1.99,-21.0,25.5
2016-02-12 00:59:00,0.0,1.95769,0.00034,408.502,0.044,0.0315,0.0018,140.000,45.000,31520.93873,1.95828,408.656,32.169,45.071,45.000,0.00,0.08,-272.75,-272.81,-5,519,-952,19.2,1.1,-37.4,19.4,1.2,-36.6,5.73,2.05,-21.0,25.5
2016-02-12 01:00:00,0.0,1.95717,0.00037,408.510,0.029,0.0308,0.0017,139.999,45.000,31521.75137,1.95777,408.661,32.175,45.071,45.000,0.00,0.08,-272.76,-272.80,-4,519,-952,19.2,1.1,-37.4,19.4,1.2,-36.6,5.73,2.09,-21.0,25.4
2016-02-12 01:01:00,0.0,1.95695,0.00040,408.533,0.036,0.0312,0.0020,139.995,45.000,31518.56173,1.95757,408.686,32.171,45.071,45.000,0.00,0.08,-272.76,-272.80,-4,519,-952,19.2,1.1,-37.4,19.4,1.2,-36.6,5.73,2.08,-21.0,25.4
2016-02-12 01:02:00,0.0,1.95696,0.00034,408.533,0.033,0.0307,0.0014,139.999,45.000,31519.26555,1.95751,408.685,32.163,45.071,45.000,0.00,0.08,-272.75,-272.81,-4,519,-952,19.2,1.1,-37.2,19.4,1.2,-36.4,5.73,2.04,-21.0,25.4
2016-02-12 01:03:00,0.0,1.95701,0.00048,408.509,0.033,0.0315,0.0018,139.997,45.000,31518.92055,1.95764,408.663,32.181,45.071,45.000,0.00,0.08,-272.75,-272.81,-4,519,-952,19.2,1.1,-37.2,19.4,1.2,-36.4,5.73,1.98,-19.9,25.4
2016-02-12 01:04:00,0.0,1.95682,0.00042,408.511,0.030,0.0311,0.0016,140.000,45.001,31522.66914,1.95746,408.664,32.184,45.071,45.000,0.00,0.08,-272.75,-272.81,-4,519,-952,19.2,1.1,-37.4,19.4,1.2,-36.4,5.73,1.93,-19.8,25.4
2016-02-12 01:05:00,0.0,1.95704,0.00037,408.499,0.031,0.0315,0.0017,139.998,45.000,31520.59850,1.95760,408.653,32.185,45.071,45.000,0.00,0.08,-272.75,-272.81,-4,519,-952,19.2,1.1,-37.4,19.3,1.2,-36.7,5.73,1.91,-20.0,25.4
2016-02-12 01:06:00,0.0,1.95727,0.00031,408.521,0.032,0.0314,0.0018,140.000,45.000,31518.40649,1.95786,408.675,32.172,45.071,45.000,0.00,0.08,-272.75,-272.81,-4,519,-952,19.2,1.1,-37.4,19.3,1.2,-36.7,5.73,1.93,-20.0,25.4
2016-02-12 01:07:00,0.0,1.95708,0.00025,408.520,0.038,0.0321,0.0019,139.999,45.000,31517.01726,1.95770,408.677,32.162,45.071,45.000,0.00,0.08,-272.75,-272.80,-4,519,-952,19.2,1.1,-37.1,19.3,1.2,-36.4,5.73,1.99,-20.1,25.4
2016-02-12 01:08:00,0.0,1.95759,0.00029,408.558,0.030,0.0310,0.0015,139.998,45.000,31516.96126,1.95817,408.711,32.182,45.071,45.000,0.00,0.08,-272.76,-272.81,-4,519,-952,19.1,1.1,-37.1,19.3,1.2,-36.4,5.73,2.05,-20.2,25.4
2016-02-12 01:09:00,0.0,1.95753,0.00033,408.564,0.031,0.0320,0.0023,139.998,44.999,31514.41008,1.95815,408.720,32.181,45.071,45.000,0.00,0.08,-272.75,-272.81,-5,519,-952,19.1,1.2,-36.8,19.3,1.2,-36.3,5.73,2.09,-20.2,25.4
2016-02-12 01:10:00,0.0,1.95739,0.00035,408.541,0.034,0.0335,0.0016,140.000,45.000,31514.20978,1.95805,408.706,32.135,45.071,45.000,0.00,0.08,-272.75,-272.81,-5,519,-952,19.1,1.2,-36.8,19.3,1.2,-36.2,5.73,2.08,-20.3,25.4
2016-02-12 01:11:00,0.0,1.95761,0.00043,408.554,0.031,0.0319,0.0018,140.002,45.000,31514.77018,1.95822,408.711,32.124,45.071,45.000,0.00,0.08,-272.76,-272.82,-5,519,-952,19.1,1.2,-36.8,19.3,1.2,-36.2,5.73,2.05,-20.4,25.4
2016-02-12 01:12:00,0.0,1.95730,0.00053,408.535,0.043,0.0316,0.0016,139.997,45.000,31513.22473,1.95793,408.691,32.125,45.071,45.000,0.00,0.08,-272.75,-272.80,-5,519,-952,19.1,1.1,-37.0,19.3,1.2,-36.4,5.73,1.99,-20.4,25.4
2016-02-12 01:13:00,0.0,1.95705,0.00040,408.500,0.026,0.0311,0.0018,139.998,45.000,31513.64513,1.95762,408.650,32.125,45.071,45.000,0.00,0.08,-272.75,-272.80,-5,519,-952,19.1,1.1,-37.3,19.3,1.2,-36.5,5.73,1.93,-20.4,25.4
2016-02-12 01:14:00,0.0,1.95811,0.00049,408.575,0.031,0.0308,0.0015,139.997,45.000,31512.44801,1.95869,408.727,32.125,45.071,45.000,0.00,0.08,-272.75,-272.80,-5,519,-952,19.0,1.1,-37.3,19.3,1.2,-36.7,5.73,1.92,-20.5,25.4
2016-02-12 01:15:00,0.0,1.95720,0.00043,408.510,0.030,0.0312,0.0020,139.999,44.999,31511.77264,1.95785,408.663,32.125,45.071,45.000,0.00,0.08,-272.77,-272.81,-5,519,-952,19.1,1.1,-37.3,19.3,1.2,-36.7,5.73,1.93,-20.5,25.3
2016-02-12 01:16:00,0.0,1.95700,0.00044,408.486,0.035,0.0310,0.0020,140.000,45.001,31515.41449,1.95758,408.640,32.107,45.071,45.000,0.00,0.08,-272.75,-272.81,-5,519,-952,19.0,1.1,-37.4,19.2,1.2,-36.7,5.73,1.98,-20.5,25.4
2016-02-12 01:17:00,0.0,1.95717,0.00033,408.493,0.029,0.0311,0.0017,140.001,45.005,31522.72983,1.95774,408.645,32.103,45.071,45.000,0.00,0.08,-272.75,-272.81,-5,519,-952,19.1,1.1,-37.5,19.2,1.2,-36.7,5.73,2.04,-20.6,25.3
2016-02-12 01:18:00,0.0,1.95721,0.00036,408.488,0.033,0.0294,0.0018,140.000,45.010,31530.97239,1.95778,408.631,32.109,45.071,45.000,0.00,0.08,-272.76,-272.81,-4,519,-952,19.0,1.1,-37.7,19.3,1.1,-36.9,5.73,2.08,-20.6,25.3
2016-02-12 01:19:00,0.0,1.95775,0.00041,408.514,0.039,0.0300,0.0015,140.000,45.011,31538.72680,1.95832,408.661,32.129,45.071,45.000,0.00,0.08,-272.75,-272.81,-4,519,-952,19.0,1.1,-37.8,19.3,1.1,-37.0,5.73,2.09,-20.6,25.3
2016-02-12 01:20:00,0.0,1.95812,0.00029,408.534,0.034,0.0299,0.0017,139.999,45.009,31543.33645,1.95869,408.682,32.174,45.071,45.000,0.00,0.08,-272.75,-272.81,-4,519,-952,19.0,1.1,-37.5,19.3,1.1,-37.0,5.73,2.06,-20.6,25.3
2016-02-12 01:21:00,0.0,1.95793,0.00035,408.538,0.028,0.0317,0.0033,139.999,45.005,31545.24181,1.95855,408.694,32.184,45.071,45.000,0.00,0.08,-272.76,-272.81,-4,519,-952,19.0,1.1,-37.3,19.2,1.2,-36.9,5.73,2.00,-20.7,25.3
2016-02-12 01:22:00,0.0,1.95819,0.00038,408.559,0.030,0.0306,0.0016,139.998,45.001,31542.06307,1.95876,408.708,32.185,45.071,45.000,0.00,0.08,-272.76,-272.81,-4,519,-952,19.0,1.1,-37.3,19.2,1.2,-36.7,5.73,1.95,-20.7,25.3
2016-02-12 01:23:00,0.0,1.95826,0.00044,408.579,0.037,0.0299,0.0012,139.997,44.997,31538.66022,1.95886,408.727,32.184,45.071,45.000,0.00,0.08,-272.75,-272.81,-4,519,-952,19.0,1.1,-37.5,19.2,1.2,-36.8,5.73,1.92,-20.7,25.3
2016-02-12 01:24:00,0.0,1.95849,0.00032,408.572,0.028,0.0297,0.0020,140.002,44.995,31534.21403,1.95904,408.718,32.158,45.071,45.000,0.00,0.08,-272.75,-272.81,-4,519,-952,19.0,1.1,-37.5,19.2,1.1,-37.0,5.73,1.93,-20.7,25.3
2016-02-12 01:25:00,0.0,1.95822,0.00036,408.579,0.030,0.0301,0.0017,139.998,44.994,31529.44256,1.95882,408.725,32.130,45.071,45.000,0.00,0.08,-272.76,-272.81,-4,519,-952,19.0,1.1,-37.6,19.2,1.1,-37.0,5.73,1.97,-20.8,25.3
2016-02-12 01:26:00,0.0,1.95824,0.00048,408.549,0.044,0.0299,0.0013,140.002,44.993,31526.84814,1.95881,408.697,32.124,45.071,45.000,0.00,0.08,-272.76,-272.81,-4,518,-952,19.0,1.1,-37.6,19.2,1.1,-37.0,5.73,2.02,-20.8,25.3
2016-02-12 01:27:00,0.0,1.95874,0.00033,408.551,0.026,0.0294,0.0017,140.000,44.993,31521.91900,1.95930,408.696,32.108,45.071,45.000,0.00,0.08,-272.75,-272.79,-4,519,-952,19.0,1.1,-37.7,19.2,1.1,-37.0,5.73,2.07,-20.8,25.3
2016-02-12 01:28:00,0.0,1.95850,0.00034,408.482,0.025,0.0297,0.0024,140.000,44.995,31521.25334,1.95909,408.628,32.092,45.071,45.000,0.00,0.08,-272.76,-272.81,-4,518,-952,19.0,1.1,-37.8,19.2,1.1,-37.1,5.73,2.09,-20.8,25.3
2016-02-12 01:29:00,0.0,1.95847,0.00033,408.495,0.025,0.0286,0.0010,139.997,44.996,31517.41832,1.95902,408.637,32.063,45.071,45.000,0.00,0.08,-272.76,-272.82,-4,518,-952,19.0,1.0,-38.0,19.2,1.1,-37.3,5.73,2.07,-20.8,25.3
2016-02-12 01:30:00,0.0,1.95829,0.00037,408.498,0.031,0.0287,0.0018,140.003,44.997,31518.25163,1.95882,408.638,32.065,45.071,45.000,0.00,0.08,-272.74,-272.80,-5,518,-952,19.0,1.0,-38.1,19.2,1.1,-37.3,5.73,2.02,-20.8,25.3
2016-02-12 01:31:00,0.0,1.95797,0.00051,408.515,0.030,0.0287,0.0012,139.999,44.998,31514.20764,1.95855,408.655,32.085,45.071,45.000,0.00,0.08,-272.75,-272.81,-4,518,-952,19.0,1.1,-37.8,19.2,1.1,-37.2,5.73,1.96,-20.8,25.3
2016-02-12 01:32:00,0.0,1.95815,0.00031,408.542,0.035,0.0291,0.0021,140.000,45.000,31511.22200,1.95870,408.685,32.103,45.071,45.000,0.00,0.08,-272.76,-272.81,-5,518,-952,19.0,1.1,-37.8,19.1,1.1,-37.2,5.73,1.92,-20.8,25.3
2016-02-12 01:33:00,0.0,1.95829,0.00033,408.562,0.037,0.0292,0.0020,140.002,45.000,31510.42663,1.95887,408.705,32.095,45.071,45.000,0.00,0.08,-272.75,-272.81,-5,518,-952,19.0,1.1,-37.8,19.1,1.1,-37.3,5.73,1.92,-20.8,25.2
2016-02-12 01:34:00,0.0,1.95872,0.00035,408.560,0.036,0.0299,0.0016,140.002,45.000,31508.11796,1.95930,408.707,32.093,45.071,45.000,0.00,0.08,-272.75,-272.80,-5,518,-952,18.9,1.1,-37.8,19.1,1.1,-37.1,5.73,1.96,-20.9,25.3
2016-02-12 01:35:00,0.0,1.95850,0.00036,408.581,0.048,0.0294,0.0016,139.999,45.000,31507.48705,1.95906,408.727,32.063,45.071,45.000,0.00,0.08,-272.76,-272.82,-4,518,-952,18.9,1.1,-37.8,19.1,1.1,-37.0,5.73,2.02,-20.9,25.2
2016-02-12 01:36:00,0.0,1.95810,0.00035,408.560,0.038,0.0290,0.0011,139.999,45.001,31508.82841,1.95866,408.700,32.063,45.071,45.000,0.00,0.08,-272.76,-272.82,-5,518,-952,18.9,1.1,-37.9,19.1,1.1,-37.1,5.73,2.07,-20.9,25.3
2016-02-12 01:37:00,0.0,1.95818,0.00038,408.561,0.045,0.0292,0.0016,139.996,45.000,31507.21830,1.95875,408.706,32.063,45.071,45.000,0.00,0.08,-272.75,-272.80,-4,518,-952,18.9,1.1,-37.8,19.1,1.1,-37.1,5.73,2.09,-20.9,25.3
2016-02-12 01:38:00,0.0,1.95841,0.00030,408.549,0.024,0.0299,0.0015,139.997,45.000,31507.60077,1.95897,408.695,32.067,45.071,45.000,0.00,0.08,-272.76,-272.81,-4,518,-952,18.9,1.1,-37.6,19.1,1.2,-36.8,5.73,2.07,-20.9,25.3
2016-02-12 01:39:00,0.0,1.95834,0.00042,408.557,0.038,0.0298,0.0017,139.999,45.000,31507.33944,1.95891,408.703,32.063,45.071,45.000,0.00,0.08,-272.76,-272.81,-4,518,-952,18.9,1.1,-37.6,19.1,1.2,-36.9,5.73,2.03,-20.9,25.2
2016-02-12 01:40:00,0.0,1.95832,0.00035,408.556,0.033,0.0301,0.0013,139.998,45.000,31506.37597,1.95891,408.705,32.044,45.071,45.000,0.00,0.08,-272.75,-272.80,-4,518,-952,18.9,1.1,-37.6,19.1,1.2,-36.8,5.73,1.97,-20.9,25.2
2016-02-12 01:41:00,0.0,1.95825,0.00033,408.561,0.041,0.0305,0.0019,140.001,45.000,31505.59696,1.95883,408.710,32.006,45.071,45.000,0.00,0.08,-272.76,-272.80,-4,518,-952,18.9,1.1,-37.6,19.1,1.2,-36.8,5.73,1.92,-20.9,25.2
2016-02-12 01:42:00,0.0,1.95838,0.00043,408.563,0.036,0.0302,0.0014,139.998,44.999,31503.64991,1.95896,408.711,32.013,45.071,45.001,0.00,0.08,-272.75,-272.81,-4,518,-952,18.9,1.1,-37.6,19.1,1.2,-36.8,5.73,1.92,-20.9,25.2
2016-02-12 01:43:00,0.0,1.95836,0.00031,408.571,0.026,0.0309,0.0023,140.001,45.000,31504.87284,1.95894,408.723,32.005,45.071,45.001,0.00,0.08,-272.75,-272.80,-4,518,-952,18.9,1.1,-37.6,19.1,1.2,-36.8,5.73,1.95,-20.9,25.2
2016-02-12 01:44:00,0.0,1.95794,0.00034,408.545,0.032,0.0300,0.0016,139.997,45.000,31504.49168,1.95857,408.693,32.001,45.071,45.000,0.00,0.08,-272.75,-272.80,-4,518,-952,18.9,1.1,-37.6,19.1,1.2,-36.8,5.73,2.01,-20.9,25.2
2016-02-12 01:45:00,0.0,1.95794,0.00041,408.555,0.028,0.0298,0.0017,139.997,45.000,31503.98463,1.95848,408.699,32.005,45.071,45.000,0.00,0.08,-272.76,-272.81,-4,518,-952,18.9,1.1,-37.6,19.1,1.2,-36.8,5.73,2.06,-20.9,25.2